Total_Precipitation_Accumulation
0.00 0.00 0.01 0.02 0.05 0.04 0.02 0.01 0.03 0.04 0.07 0.03 0.01 0.01 0.00 0.00 0.00 0.00 0.00 0.01 0.01 0.01 0.01 0.01 0.02 0.02 0.02 0.03 0.03 0.04 0.05 0.05 0.06 0.06 0.06 0.05 0.05 0.05 0.06 0.08 0.11 0.15 0.17 0.17
0.00 0.00 0.01 0.02 0.05 0.03 0.01 0.00 0.00 0.00 0.01 0.00 0.00 0.01 0.01 0.02 0.03 0.04 0.04 0.04 0.04 0.04 0.03 0.02 0.02 0.02 0.02 0.03 0.03 0.04 0.05 0.05 0.05 0.05 0.05 0.06 0.06 0.06 0.07 0.10 0.15 0.20 0.21 0.22
0.00 0.00 0.01 0.07 0.04 0.01 0.00 0.00 0.00 0.00 0.00 0.00 0.01 0.01 0.02 0.05 0.06 0.05 0.03 0.02 0.01 0.01 0.00 0.00 0.00 0.00 0.00 0.01 0.01 0.02 0.03 0.03 0.03 0.05 0.05 0.07 0.07 0.08 0.10 0.14 0.19 0.24 0.26 0.27
0.00 0.00 0.04 0.07 0.01 0.00 0.00 0.00 0.00 0.00 0.00 0.00 0.00 0.01 0.01 0.01 0.01 0.00 0.00 0.00 0.00 0.00 0.00 0.00 0.00 0.00 0.00 0.00 0.01 0.01 0.02 0.03 0.04 0.06 0.08 0.09 0.13 0.15 0.19 0.22 0.24 0.27 0.28 0.31
0.00 0.00 0.03 0.02 0.00 0.00 0.00 0.00 0.00 0.00 0.00 0.00 0.00 0.00 0.00 0.00 0.00 0.00 0.00 0.00 0.00 0.00 0.00 0.00 0.00 0.00 0.01 0.01 0.01 0.02 0.03 0.05 0.06 0.09 0.11 0.13 0.16 0.22 0.29 0.32 0.30 0.34 0.37 0.39
0.00 0.00 0.02 0.02 0.00 0.00 0.00 0.02 0.00 0.00 0.00 0.00 0.00 0.00 0.00 0.00 0.00 0.00 0.00 0.00 0.00 0.00 0.00 0.00 0.01 0.01 0.02 0.02 0.04 0.05 0.06 0.08 0.10 0.13 0.18 0.21 0.24 0.28 0.32 0.38 0.38 0.41 0.44 0.48
0.00 0.00 0.00 0.00 0.00 0.00 0.00 0.00 0.00 0.00 0.00 0.00 0.00 0.00 0.00 0.00 0.00 0.00 0.00 0.00 0.00 0.00 0.00 0.01 0.01 0.03 0.06 0.07 0.09 0.10 0.11 0.11 0.13 0.17 0.22 0.25 0.31 0.36 0.37 0.40 0.42 0.45 0.49 0.53
0.00 0.00 0.00 0.00 0.00 0.00 0.00 0.00 0.00 0.00 0.00 0.00 0.00 0.00 0.00 0.00 0.00 0.00 0.00 0.00 0.00 0.00 0.00 0.01 0.03 0.07 0.10 0.12 0.12 0.12 0.13 0.14 0.14 0.17 0.18 0.20 0.30 0.35 0.39 0.45 0.48 0.50 0.57 0.64
0.00 0.00 0.00 0.00 0.00 0.00 0.00 0.00 0.00 0.00 0.00 0.00 0.00 0.00 0.00 0.00 0.00 0.00 0.00 0.00 0.00 0.00 0.01 0.02 0.05 0.10 0.14 0.13 0.13 0.15 0.16 0.16 0.17 0.18 0.22 0.27 0.32 0.34 0.35 0.39 0.41 0.46 0.60 0.74
0.00 0.00 0.00 0.00 0.00 0.00 0.00 0.00 0.00 0.00 0.00 0.00 0.00 0.00 0.00 0.00 0.00 0.00 0.00 0.00 0.00 0.02 0.04 0.06 0.07 0.09 0.12 0.13 0.16 0.20 0.20 0.19 0.20 0.22 0.24 0.28 0.36 0.37 0.36 0.36 0.36 0.42 0.58 0.72
0.00 0.00 0.00 0.00 0.00 0.00 0.00 0.00 0.00 0.00 0.00 0.00 0.00 0.00 0.00 0.00 0.00 0.00 0.00 0.01 0.02 0.05 0.09 0.10 0.09 0.09 0.10 0.14 0.21 0.25 0.24 0.23 0.23 0.25 0.27 0.28 0.34 0.37 0.31 0.33 0.29 0.30 0.46 0.68
0.00 0.00 0.00 0.00 0.00 0.00 0.00 0.00 0.00 0.00 0.00 0.00 0.00 0.00 0.00 0.00 0.00 0.00 0.01 0.04 0.08 0.12 0.14 0.14 0.13 0.13 0.13 0.19 0.27 0.32 0.30 0.27 0.26 0.27 0.28 0.30 0.33 0.33 0.25 0.19 0.15 0.12 0.17 0.33
0.00 0.00 0.00 0.00 0.00 0.00 0.00 0.00 0.00 0.00 0.00 0.00 0.00 0.00 0.00 0.00 0.00 0.01 0.05 0.11 0.18 0.22 0.23 0.21 0.20 0.19 0.18 0.24 0.32 0.34 0.34 0.30 0.29 0.27 0.27 0.27 0.28 0.33 0.37 0.32 0.17 0.11 0.09 0.13
0.00 0.00 0.00 0.00 0.00 0.00 0.00 0.00 0.00 0.00 0.00 0.00 0.00 0.00 0.00 0.00 0.01 0.05 0.12 0.21 0.29 0.32 0.30 0.28 0.26 0.22 0.22 0.28 0.32 0.31 0.30 0.29 0.27 0.25 0.25 0.26 0.28 0.31 0.33 0.40 0.41 0.31 0.17 0.10
0.00 0.00 0.00 0.00 0.00 0.00 0.00 0.00 0.00 0.00 0.00 0.00 0.00 0.00 0.00 0.01 0.04 0.11 0.20 0.34 0.41 0.37 0.32 0.30 0.28 0.24 0.24 0.29 0.32 0.30 0.29 0.25 0.21 0.20 0.22 0.25 0.28 0.29 0.30 0.36 0.46 0.52 0.44 0.18
0.00 0.00 0.00 0.00 0.00 0.00 0.00 0.00 0.00 0.00 0.00 0.00 0.00 0.00 0.00 0.01 0.06 0.14 0.25 0.39 0.51 0.49 0.40 0.35 0.29 0.23 0.23 0.29 0.30 0.27 0.24 0.20 0.15 0.15 0.18 0.23 0.25 0.25 0.30 0.39 0.48 0.58 0.56 0.30
0.00 0.00 0.00 0.00 0.00 0.00 0.00 0.00 0.00 0.00 0.00 0.00 0.00 0.00 0.00 0.03 0.11 0.22 0.32 0.39 0.43 0.43 0.41 0.38 0.29 0.22 0.23 0.28 0.27 0.26 0.23 0.19 0.14 0.13 0.17 0.20 0.23 0.26 0.31 0.41 0.52 0.58 0.49 0.25
0.00 0.00 0.00 0.00 0.00 0.00 0.00 0.00 0.00 0.00 0.00 0.00 0.00 0.00 0.01 0.06 0.22 0.39 0.46 0.50 0.46 0.37 0.36 0.35 0.27 0.21 0.21 0.23 0.24 0.24 0.20 0.17 0.15 0.15 0.18 0.20 0.21 0.28 0.34 0.45 0.54 0.56 0.41 0.20
0.00 0.00 0.00 0.00 0.00 0.00 0.00 0.00 0.00 0.00 0.00 0.00 0.00 0.00 0.01 0.07 0.25 0.40 0.46 0.57 0.62 0.56 0.46 0.37 0.26 0.20 0.20 0.19 0.18 0.21 0.19 0.17 0.16 0.15 0.17 0.14 0.18 0.26 0.31 0.38 0.46 0.48 0.34 0.23
0.00 0.00 0.00 0.00 0.00 0.00 0.00 0.00 0.00 0.00 0.00 0.00 0.00 0.00 0.01 0.06 0.22 0.36 0.42 0.51 0.61 0.62 0.55 0.44 0.25 0.17 0.16 0.17 0.19 0.18 0.17 0.16 0.14 0.13 0.13 0.14 0.16 0.20 0.22 0.27 0.34 0.35 0.28 0.23
0.00 0.00 0.00 0.00 0.00 0.00 0.00 0.00 0.00 0.00 0.00 0.00 0.00 0.00 0.01 0.05 0.14 0.28 0.50 0.61 0.53 0.48 0.47 0.48 0.27 0.13 0.11 0.13 0.18 0.19 0.18 0.17 0.14 0.14 0.12 0.12 0.14 0.17 0.22 0.24 0.24 0.22 0.20 0.20
0.00 0.00 0.00 0.00 0.00 0.00 0.00 0.00 0.00 0.00 0.00 0.00 0.00 0.00 0.02 0.04 0.10 0.19 0.34 0.51 0.52 0.48 0.36 0.35 0.27 0.12 0.08 0.08 0.10 0.14 0.17 0.20 0.19 0.19 0.17 0.16 0.15 0.17 0.21 0.20 0.15 0.12 0.13 0.18
0.00 0.00 0.00 0.00 0.00 0.00 0.00 0.00 0.00 0.00 0.00 0.00 0.00 0.01 0.02 0.04 0.11 0.25 0.33 0.33 0.36 0.38 0.24 0.20 0.21 0.15 0.09 0.08 0.09 0.10 0.10 0.13 0.15 0.14 0.12 0.12 0.12 0.12 0.13 0.13 0.11 0.11 0.13 0.18
0.00 0.00 0.00 0.00 0.00 0.00 0.00 0.00 0.00 0.00 0.00 0.00 0.00 0.01 0.02 0.04 0.08 0.14 0.23 0.27 0.29 0.32 0.23 0.20 0.17 0.15 0.13 0.12 0.12 0.11 0.09 0.10 0.11 0.10 0.09 0.10 0.10 0.11 0.13 0.16 0.16 0.15 0.15 0.15
0.00 0.00 0.00 0.01 0.01 0.01 0.01 0.01 0.01 0.01 0.01 0.01 0.01 0.01 0.02 0.04 0.08 0.11 0.15 0.16 0.18 0.20 0.18 0.20 0.21 0.20 0.17 0.17 0.19 0.18 0.15 0.14 0.13 0.12 0.13 0.14 0.16 0.18 0.19 0.19 0.18 0.15 0.13 0.11
0.01 0.01 0.01 0.01 0.01 0.02 0.02 0.02 0.02 0.02 0.02 0.02 0.02 0.02 0.03 0.03 0.06 0.08 0.12 0.13 0.12 0.12 0.09 0.09 0.11 0.14 0.15 0.19 0.21 0.22 0.20 0.18 0.18 0.18 0.20 0.24 0.25 0.25 0.22 0.18 0.16 0.15 0.13 0.10
0.02 0.02 0.02 0.02 0.02 0.03 0.03 0.03 0.04 0.04 0.04 0.04 0.04 0.03 0.04 0.05 0.07 0.07 0.07 0.08 0.08 0.06 0.05 0.03 0.02 0.03 0.04 0.05 0.08 0.12 0.15 0.19 0.20 0.21 0.23 0.25 0.24 0.22 0.19 0.16 0.15 0.12 0.11 0.11